OPS 4682 DEB, 38441

Orbit data source: Space-Track

OPS 4682 DEB, 38441 is space debris in LEO originally from a launch on Sat, 03 Apr 1965 UTC launched from the Air Force Western Test Range (AFWTR). Debris objects in space refer to the collection of defunct objects orbiting the Earth. Examples of debris include non-operational satellites, rocket bodies, and fragments generated from explosions, collisions, or faulty payload assembly.

Loading next visibility...
Identifier
38441, 1965-027EW
Orbit
LEO
Country
Flag of USUS
Related business
Manufacturer
Unknown
Mission
Spacecraft
Bus & Motor
Unknown
Mass
Unknown
Launch date (UTC)
1965-04-03 (61 years ago)
Launch vehicle
Unknown
Launch site
Air Force Western Test Range (AFWTR)
Object type
Payload
Rocket body
Debris
Shape & HBR
Unknown shape, 0.1 m
Radar Cross Section
Small (<0.1 m²)

Expand to show TLE details & history
Last TLE update: 3 days ago

TLE from 3 days ago
0 OPS 4682 DEB
1 38441U 65027EW  26172.25650827 -.00000109  00000-0 -40879-3 0  9996
2 38441  90.2438   8.1877 0030154 163.5725 196.6379 12.96202670612949
Epoch: 2026-06-21T06:09Z
TLE epoch observation values (Epoch: 2026-06-21T06:09:22.314Z)
Latitude
-0.00004°
Longitude
6.38534°
Altitude
1,302.006 km
Speed
7.195 km/s
True Right ascension
00h 32m 45s
True Declination
0° 00' 00"
Sunlit
Object was in daylight at epoch
Visualization orbit readout
Latitude
Unknown
Longitude
Unknown
Altitude
Unknown
Speed
Unknown
Apparent Right ascension
Unknown
Apparent Declination
Unknown
Sunlit
N/A
Visualization observer readout
Local Sidereal Time
00:17:42
Azimuth
Unknown
Elevation
Unknown
Doppler factor
Unknown
Orbital elements
Apogee altitude
1,297.208 km
Perigee altitude
1,251.059 km
Semi-major axis
7,652.271 km
Eccentricity
0.00302
Inclination
90.2438°
RAAN
8.1877°
Arg. of periapsis
163.5725°
True anomaly
196.53932°
Mean anomaly
196.6379°
Eccentric anomaly
196.58857°
Mean motion
3.24233 °/min
Orbital period
111.03 mins
BSTAR
-0.00040879
Loading maneuver chart data...
Computing Atmospheric mass density...
Loading historical data...
Loading historical data...
Loading historical data...
Loading historical data...
Loading historical data...
Loading historical data...
Loading historical data...

Documentation

Showing up to 5 results
|